This is the latest recevied weather packets stored in our database for station/object K2ATL. If no packets are shown the sender has not sent any weather packets the latest 10 day(s).
| Time | Temp. | Humidity | Pressure | Rain* | Wind** | Luminosity | Snow |
|---|---|---|---|---|---|---|---|
| 1777317044 | 22.78° C | 53% | 1104.8 hPa | 0 mm | - | 882 W/m² | - |
| 1777316743 | 21.11° C | 51% | 1104.8 hPa | 0 mm | - | 887 W/m² | - |
| 1777316438 | 22.78° C | 53% | 1105 hPa | 0 mm | - | 917 W/m² | - |
| 1777316136 | 21.67° C | 52% | 1105 hPa | 0 mm | - | 836 W/m² | - |
| 1777315834 | 21.11° C | 55% | 1105 hPa | 0 mm | - | 873 W/m² | - |
| 1777315533 | 21.11° C | 54% | 1105.1 hPa | 0 mm | - | 854 W/m² | - |
| 1777315230 | 20.56° C | 57% | 1105.1 hPa | 0 mm | - | 840 W/m² | - |
| 1777314926 | 21.11° C | 55% | 1105 hPa | 0 mm | - | 861 W/m² | - |
| 1777314622 | 22.22° C | 51% | 1105.2 hPa | 0 mm | - | 794 W/m² | - |
| 1777314320 | 21.67° C | 55% | 1105.1 hPa | 0 mm | - | 869 W/m² | - |
| 1777314017 | 21.11° C | 55% | 1105.1 hPa | 0 mm | - | 904 W/m² | - |
| 1777313714 | 21.11° C | 57% | 1104.9 hPa | 0 mm | - | 894 W/m² | - |
| 1777313412 | 21.67° C | 56% | 1104.9 hPa | 0 mm | - | 935 W/m² | - |
| 1777313108 | 21.67° C | 56% | 1105.1 hPa | 0 mm | - | 965 W/m² | - |
| 1777312804 | 20° C | 58% | 1105.2 hPa | 0 mm | - | 988 W/m² | - |
| 1777312501 | 21.67° C | 57% | 1105.2 hPa | 0 mm | - | 1040 W/m² | - |
| 1777312198 | 20.56° C | 58% | 1105.4 hPa | 0 mm | - | 1031 W/m² | - |
| 1777311895 | 20.56° C | 58% | 1105.1 hPa | 0 mm | - | 958 W/m² | - |
| 1777311592 | 20° C | 60% | 1105.3 hPa | 0 mm | - | 1010 W/m² | - |
| 1777311289 | 19.44° C | 59% | 1105.2 hPa | 0 mm | - | 920 W/m² | - |
| 1777310987 | 20° C | 60% | 1105.3 hPa | 0 mm | - | 956 W/m² | - |
| 1777310685 | 19.44° C | 60% | 1105.4 hPa | 0 mm | - | 994 W/m² | - |
| 1777310382 | 18.89° C | 62% | 1105.6 hPa | 0 mm | - | 893 W/m² | - |
| 1777310078 | 19.44° C | 61% | 1105.5 hPa | 0 mm | - | 972 W/m² | - |
| 1777309777 | 19.44° C | 63% | 1105.5 hPa | 0 mm | - | 940 W/m² | - |
* Rain latest hour (hover to see other rain measurements)
** Current wind speed in m/s (hover to see current wind gust speed)